ZHANGHENG 1 (CSES)

Last updated on Sat Jun 14 2025 00:03:30 GMT+0000 (Coordinated Universal Time)

1 43194U 18015C 25164.55396931 .00014615 00000+0 66174-3 0 9998 2 43194 97.6497 318.7513 0012541 142.1937 218.0181 15.20921547408619

Satellite not in orbit

ZHANGHENG 1 (CSES)